FW3996 Weather Reports


time (UTC)temp
F
wind
direction
speed
knots
gust
knots
rain 1hr
in
rain 24hr
in
rain mn
in
humidity
%
barometer
mb
20260906173442 75 355 0.9 3.5 0.00 0.00 0.00 73 1019.9
20260906173200 75 113 0.9 5.2 0.00 0.00 0.00 74 1019.9
20260906172430 74 109 0.9 5.2 0.00 0.00 0.00 76 1020.0
20260906172146 74 100 1.7 6.1 0.00 0.00 0.00 74 1019.9
20260906171651 74 104 1.7 6.1 0.00 0.00 0.00 77 1019.9
20260906170911 74 127 1.7 3.5 0.00 0.00 0.00 75 1019.9
20260906170406 73 97 1.7 6.1 0.00 0.00 0.00 77 1020.0
20260906170123 73 117 1.7 6.1 0.00 0.00 0.00 75 1020.0
20260906165354 73 143 1.7 5.2 0.00 0.00 0.00 75 1019.9
20260906164852 73 117 1.7 4.3 0.00 0.00 0.00 76 1019.9
20260906164350 73 135 0.9 4.3 0.00 0.00 0.00 75 1020.0
20260906163848 73 89 1.7 3.5 0.00 0.00 0.00 77 1020.1
20260906163346 73 110 1.7 5.2 0.00 0.00 0.00 80 1020.1
20260906162844 72 107 1.7 5.2 0.00 0.00 0.00 77 1020.1
20260906162344 73 59 0.9 2.6 0.00 0.00 0.00 78 1020.0
20260906161844 73 60 0.9 2.6 0.00 0.00 0.00 78 1020.1
20260906161345 73 55 0.9 3.5 0.00 0.00 0.00 78 1020.1
20260906160844 73 56 0.9 3.5 0.00 0.00 0.00 75 1020.1
20260906160343 73 87 0.9 2.6 0.00 0.00 0.00 77 1020.1
20260906155841 72 87 0.9 3.5 0.00 0.00 0.00 77 1020.2
20260906155342 72 23 1.7 3.5 0.00 0.00 0.00 78 1020.2
20260906154842 72 86 1.7 3.5 0.00 0.00 0.00 79 1020.2
20260906154559 71 95 0.9 3.5 0.00 0.00 0.00 78 1020.2
20260906153842 71 22 0.9 1.7 0.00 0.00 0.00 79 1020.2
20260906153342 71 22 0.9 1.7 0.00 0.00 0.00 80 1020.2
20260906153108 69 22 0.9 3.5 0.00 0.00 0.00 79 1020.2
20260906152335 69 22 0.9 3.5 0.00 0.00 0.00 79 1020.2
20260906151837 69 29 0.9 2.6 0.00 0.00 0.00 79 1020.3
20260906151336 69 65 0.9 2.6 0.00 0.00 0.00 79 1020.3
20260906151102 69 104 0.9 2.6 0.00 0.00 0.00 84 1020.4
20260906150336 69 105 0.9 2.6 0.00 0.00 0.00 82 1020.4
20260906145836 68 29 0.9 1.7 0.00 0.00 0.00 83 1020.4
20260906145337 68 88 0.9 2.6 0.00 0.00 0.00 82 1020.5
20260906144836 67 100 0.9 2.6 0.00 0.00 0.00 82 1020.5
20260906144602 67 44 0.9 2.6 0.00 0.00 0.00 84 1020.4
20260906143836 66 43 0.9 2.6 0.00 0.00 0.00 83 1020.4
20260906143600 67 57 0.9 1.7 0.00 0.00 0.00 83 1020.4
20260906142836 67 59 0.9 1.7 0.00 0.00 0.00 87 1020.4
20260906142336 66 69 0.9 1.7 0.00 0.00 0.00 86 1020.4
20260906141837 66 113 0.0 1.7 0.00 0.00 0.00 89 1020.5
20260906141335 66 113 0.0 0.9 0.00 0.00 0.00 90 1020.6
20260906140836 65 127 0.0 0.9 0.00 0.00 0.00 91 1020.6
20260906140336 64 92 0.0 1.7 0.00 0.00 0.00 93 1020.6
20260906135837 64 107 0.0 1.7 0.00 0.00 0.00 95 1020.6
20260906135335 63 76 0.0 1.7 0.00 0.00 0.00 97 1020.6
20260906134831 62 120 0.0 0.9 0.00 0.00 0.00 98 1020.7
20260906134330 61 120 0.0 0.9 0.00 0.00 0.00 98 1020.7
20260906133828 60 120 0.0 0.9 0.00 0.00 0.00 99 1020.7
20260906133326 60 120 0.0 0.9 0.00 0.00 0.00 98 1020.8
20260906132826 59 120 0.0 0.0 0.00 0.00 0.00 98 1020.6
20260906132549 58 120 0.0 0.9 0.00 0.00 0.00 99 1020.7
20260906131823 57 120 0.0 0.9 0.00 0.00 0.00 98 1020.6
20260906131323 57 120 0.0 0.0 0.00 0.00 0.00 99 1020.7
20260906130824 56 120 0.0 0.0 0.00 0.00 0.00 98 1020.7
20260906130321 55 120 0.0 0.0 0.00 0.00 0.00 98 1020.7
20260906125819 55 120 0.0 0.0 0.00 0.00 0.00 98 1020.6
20260906125537 55 120 0.0 0.9 0.00 0.00 0.00 98 1020.5
20260906124817 54 120 0.0 0.9 0.00 0.00 0.00 98 1020.4
20260906124318 54 120 0.0 0.9 0.00 0.00 0.00 98 1020.3
20260906123817 53 120 0.0 0.0 0.00 0.00 0.00 98 1020.4
20260906123316 53 120 0.0 0.0 0.00 0.00 0.00 98 1020.3
20260906122815 53 120 0.0 0.0 0.00 0.00 0.00 98 1020.3
20260906122317 52 120 0.0 0.0 0.00 0.00 0.00 98 1020.3
20260906121811 52 120 0.0 0.0 0.00 0.00 0.00 98 1020.3
20260906121305 51 120 0.0 0.0 0.00 0.00 0.00 98 1020.5
20260906120759 51 120 0.0 0.0 0.00 0.00 0.00 98 1020.4
20260906120252 51 120 0.0 0.0 0.00 0.00 0.00 98 1020.4
20260906115746 51 120 0.0 0.0 0.00 0.00 0.00 98 1020.4
20260906115241 51 120 0.0 0.0 0.00 0.00 0.00 98 1020.3
20260906114735 51 120 0.0 0.0 0.00 0.00 0.00 98 1020.3
20260906114228 51 120 0.0 0.0 0.00 0.00 0.00 98 1020.3
20260906113722 51 120 0.0 0.0 0.00 0.00 0.00 98 1020.2
20260906113216 50 120 0.0 0.0 0.00 0.00 0.00 98 1020.1
20260906112711 50 120 0.0 0.0 0.00 0.00 0.00 98 1020.0
20260906112204 50 120 0.0 0.0 0.00 0.00 0.00 98 1019.9
20260906111659 50 120 0.0 0.0 0.00 0.00 0.00 98 1020.0
20260906111153 50 120 0.0 0.0 0.00 0.00 0.00 98 1019.9
20260906110646 50 120 0.0 0.0 0.00 0.00 0.00 98 1020.0
20260906110140 50 120 0.0 0.0 0.00 0.00 0.00 98 1019.9
20260906105634 51 120 0.0 0.0 0.00 0.00 0.00 98 1019.9
20260906105346 51 120 0.0 0.0 0.00 0.00 0.00 98 1019.9
20260906104623 51 120 0.0 0.0 0.00 0.00 0.00 98 1019.9
20260906104347 51 120 0.0 0.0 0.00 0.00 0.00 98 1019.9
20260906104056 51 120 0.0 0.0 0.00 0.00 0.00 98 1019.9
20260906103324 51 120 0.0 0.0 0.00 0.00 0.00 98 1019.9
20260906102558 51 120 0.0 0.0 0.00 0.00 0.00 98 1019.8
20260906102053 51 120 0.0 0.0 0.00 0.00 0.00 98 1019.8
20260906101810 51 120 0.0 0.0 0.00 0.00 0.00 98 1019.7
20260906101040 51 120 0.0 0.0 0.00 0.00 0.00 98 1019.8
20260906100535 51 120 0.0 0.0 0.00 0.00 0.00 98 1019.8
20260906100028 51 120 0.0 0.0 0.00 0.00 0.00 98 1019.7
20260906095522 51 120 0.0 0.0 0.00 0.00 0.00 98 1019.7
20260906095016 51 120 0.0 0.0 0.00 0.00 0.00 98 1019.7
20260906094510 51 120 0.0 0.0 0.00 0.00 0.00 98 1019.7
20260906094004 51 120 0.0 0.0 0.00 0.00 0.00 98 1019.7
20260906093500 51 120 0.0 0.0 0.00 0.00 0.00 98 1019.8
20260906092953 51 120 0.0 0.0 0.00 0.00 0.00 98 1019.8
20260906092447 51 120 0.0 0.0 0.00 0.00 0.00 98 1019.8
20260906092159 51 120 0.0 0.0 0.00 0.00 0.00 98 1019.8
20260906091439 51 120 0.0 0.0 0.00 0.00 0.00 98 1019.7
20260906090937 51 120 0.0 0.0 0.00 0.00 0.00 98 1019.8
20260906090434 51 120 0.0 0.0 0.00 0.00 0.00 98 1019.8
20260906090157 51 120 0.0 0.0 0.00 0.00 0.00 98 1019.7
20260906085433 52 120 0.0 0.0 0.00 0.00 0.00 98 1019.8
20260906084928 52 120 0.0 0.9 0.00 0.00 0.00 98 1019.7
20260906084644 52 120 0.0 0.9 0.00 0.00 0.00 98 1019.7
20260906083926 52 120 0.0 0.9 0.00 0.00 0.00 98 1019.8
20260906083423 52 120 0.0 0.9 0.00 0.00 0.00 98 1019.8
20260906082923 53 120 0.0 0.0 0.00 0.00 0.00 98 1019.8
20260906082421 53 120 0.0 0.0 0.00 0.00 0.00 98 1019.7
20260906082139 53 120 0.0 0.0 0.00 0.00 0.00 98 1019.7
20260906081418 53 120 0.0 0.0 0.00 0.00 0.00 98 1019.6
20260906080922 53 120 0.0 0.0 0.00 0.00 0.00 98 1019.6
20260906080635 53 120 0.0 0.0 0.00 0.00 0.00 98 1019.6
20260906075917 52 120 0.0 0.0 0.00 0.00 0.00 98 1019.7
20260906075411 53 120 0.0 0.0 0.00 0.00 0.00 98 1019.8
20260906074908 52 120 0.0 0.0 0.00 0.00 0.00 98 1019.9
20260906074409 52 120 0.0 0.0 0.00 0.00 0.00 98 1019.7
20260906074129 53 120 0.0 0.0 0.00 0.00 0.00 98 1019.7
20260906073404 53 120 0.0 0.0 0.00 0.00 0.00 98 1019.7
20260906072906 52 120 0.0 0.0 0.00 0.00 0.00 98 1019.7
20260906072405 52 120 0.0 0.0 0.00 0.00 0.00 97 1019.7
20260906071903 52 120 0.0 0.0 0.00 0.00 0.00 98 1019.8
20260906071403 53 120 0.0 0.0 0.00 0.00 0.00 98 1019.8
20260906070904 53 120 0.0 0.0 0.00 0.00 0.00 98 1019.9
20260906070629 53 120 0.0 0.0 0.00 0.00 0.00 97 1019.8
20260906065900 53 120 0.0 0.0 0.00 0.00 0.00 98 1019.8
20260906065400 53 120 0.0 0.0 0.00 0.00 0.00 98 1019.8
20260906064901 54 120 0.0 0.0 0.00 0.00 0.00 98 1019.8
20260906064401 54 120 0.0 0.0 0.00 0.00 0.00 98 1019.8
20260906063903 54 120 0.0 0.0 0.00 0.00 0.00 98 1019.7
20260906063401 53 120 0.0 0.0 0.00 0.00 0.00 98 1019.7
20260906063129 53 120 0.0 0.0 0.00 0.00 0.00 97 1019.7
20260906062624 53 120 0.0 0.0 0.00 0.00 0.00 97 1019.6
20260906061858 53 120 0.0 0.0 0.00 0.00 0.00 98 1019.5
20260906061358 54 120 0.0 0.0 0.00 0.00 0.00 97 1019.5
20260906060856 54 120 0.0 0.0 0.00 0.00 0.00 97 1019.4
20260906060357 54 120 0.0 0.0 0.00 0.00 0.00 98 1019.3
20260906055857 54 120 0.0 0.0 0.00 0.00 0.00 98 1019.2
20260906055358 54 120 0.0 0.0 0.00 0.00 0.00 98 1019.1
20260906054857 54 120 0.0 0.0 0.00 0.00 0.00 98 1019.1
20260906054358 54 120 0.0 0.0 0.00 0.00 0.00 97 1018.9
20260906053857 55 120 0.0 0.0 0.00 0.00 0.00 98 1018.9
20260906053356 55 120 0.0 0.0 0.00 0.00 0.00 98 1018.9
20260906052857 55 120 0.0 0.0 0.00 0.00 0.00 97 1018.9
20260906052357 55 120 0.0 0.0 0.00 0.00 0.00 98 1018.8
20260906051858 55 120 0.0 0.0 0.00 0.00 0.00 97 1018.9
20260906051356 56 120 0.0 0.0 0.00 0.00 0.00 97 1018.9
20260906051118 56 120 0.0 0.0 0.00 0.00 0.00 97 1019.1
20260906050356 56 120 0.0 0.0 0.00 0.00 0.00 97 1018.9
20260906045856 56 120 0.0 0.0 0.00 0.00 0.00 97 1018.9
20260906045349 56 120 0.0 0.0 0.00 0.00 0.00 97 1019.1
20260906044843 56 120 0.0 1.7 0.00 0.00 0.00 98 1018.9
20260906044609 56 120 0.0 1.7 0.00 0.00 0.00 97 1019.1
20260906043831 56 120 0.0 0.0 0.00 0.00 0.00 97 1018.9
20260906043327 56 120 0.0 0.0 0.00 0.00 0.00 97 1018.8
20260906042819 56 120 0.0 0.0 0.00 0.00 0.00 97 1018.8
20260906042314 56 120 0.0 0.0 0.00 0.00 0.00 97 1018.7
20260906041808 56 120 0.0 0.0 0.00 0.00 0.00 97 1018.7
20260906041302 56 120 0.0 0.0 0.00 0.00 0.00 97 1018.7
20260906041016 56 120 0.0 0.0 0.00 0.00 0.00 97 1018.7
20260906040250 56 120 0.0 0.0 0.00 0.00 0.00 97 1018.6
20260906035747 56 120 0.0 0.0 0.00 0.00 0.00 97 1018.5
20260906035241 56 120 0.0 0.9 0.00 0.00 0.00 97 1018.5
20260906034734 56 120 0.0 0.9 0.00 0.00 0.00 97 1018.5
20260906034228 57 120 0.0 0.9 0.00 0.00 0.00 97 1018.6
20260906033722 57 120 0.0 0.9 0.00 0.00 0.00 97 1018.5
20260906033217 57 120 0.0 0.0 0.00 0.00 0.00 97 1018.4
20260906032931 57 120 0.0 0.0 0.00 0.00 0.00 97 1018.4
20260906032205 57 120 0.0 0.0 0.00 0.00 0.00 97 1018.5
20260906031659 57 120 0.0 0.0 0.00 0.00 0.00 97 1018.4
20260906031152 57 120 0.0 0.0 0.00 0.00 0.00 97 1018.3
20260906030646 57 120 0.0 0.0 0.00 0.00 0.00 97 1018.3
20260906030140 57 120 0.0 0.0 0.00 0.00 0.00 97 1018.3
20260906025635 57 120 0.0 0.9 0.00 0.00 0.00 97 1018.3
20260906025129 58 120 0.0 0.9 0.00 0.00 0.00 97 1018.2
20260906024622 58 120 0.0 0.0 0.00 0.00 0.00 97 1018.2
20260906024117 58 120 0.0 0.0 0.00 0.00 0.00 97 1018.1
20260906023610 58 120 0.0 0.0 0.00 0.00 0.00 97 1018.2
20260906023104 58 120 0.0 0.0 0.00 0.00 0.00 97 1018.2
20260906022819 58 120 0.0 0.0 0.00 0.00 0.00 97 1018.3
20260906022053 58 120 0.0 0.9 0.00 0.00 0.00 97 1018.3
20260906021812 58 120 0.0 0.9 0.00 0.00 0.00 97 1018.3
20260906021041 58 120 0.0 0.0 0.00 0.00 0.00 96 1018.2
20260906020535 59 120 0.0 0.0 0.00 0.00 0.00 97 1018.1
20260906020256 59 120 0.0 0.0 0.00 0.00 0.00 96 1018.1
20260906015522 59 120 0.0 0.0 0.00 0.00 0.00 96 1018.1
20260906015016 60 120 0.0 0.0 0.00 0.00 0.00 96 1018.0
20260906014510 59 120 0.0 0.0 0.00 0.00 0.00 96 1018.0
20260906014005 59 120 0.0 0.0 0.00 0.00 0.00 96 1017.9
20260906013715 60 120 0.0 0.0 0.00 0.00 0.00 96 1017.9
20260906012952 60 120 0.0 0.0 0.00 0.00 0.00 96 1017.7
20260906012707 60 120 0.0 0.0 0.00 0.00 0.00 96 1017.7
20260906012159 60 120 0.0 0.0 0.00 0.00 0.00 96 1017.6
20260906011435 60 120 0.0 0.0 0.00 0.00 0.00 95 1017.7
20260906010928 61 120 0.0 0.0 0.00 0.00 0.00 95 1017.7
20260906010642 61 120 0.0 0.0 0.00 0.00 0.00 95 1017.7
20260906005917 61 120 0.0 0.0 0.00 0.00 0.00 95 1017.7
20260906005410 61 120 0.0 0.0 0.00 0.00 0.00 95 1017.6
20260906004905 62 120 0.0 0.0 0.00 0.00 0.00 95 1017.7
20260906004624 62 120 0.0 0.0 0.00 0.00 0.00 95 1017.7
20260906003856 62 120 0.0 0.0 0.00 0.00 0.00 95 1017.7
20260906003347 62 120 0.0 0.0 0.00 0.00 0.00 94 1017.6
20260906003330 63 120 0.0 0.0 0.00 0.00 0.00 94 1017.6
20260906002334 63 120 0.0 0.0 0.00 0.00 0.00 93 1017.6
20260906001829 64 120 0.0 0.0 0.00 0.00 0.00 93 1017.6
20260906001323 64 120 0.0 0.0 0.00 0.00 0.00 92 1017.6
20260906000817 65 120 0.0 0.0 0.00 0.00 0.00 92 1017.7
20260906000528 65 120 0.0 0.0 0.00 0.00 0.00 91 1017.6
20260905235805 65 120 0.0 0.0 0.00 0.00 0.00 91 1017.6
20260905235259 66 120 0.0 0.0 0.00 0.00 0.00 90 1017.6
20260905234753 66 120 0.0 0.9 0.00 0.00 0.00 88 1017.6
20260905234505 67 120 0.0 0.9 0.00 0.00 0.00 87 1017.6
20260905233741 68 84 0.0 1.7 0.00 0.00 0.00 85 1017.6
20260905233235 68 84 0.9 3.5 0.00 0.00 0.00 84 1017.6
20260905232729 67 155 0.9 3.5 0.00 0.00 0.00 85 1017.6
20260905232222 67 177 0.9 2.6 0.00 0.00 0.00 86 1017.6
20260905231717 67 318 0.9 1.7 0.00 0.00 0.00 87 1017.6
20260905231210 67 198 0.9 1.7 0.00 0.00 0.00 86 1017.7
20260905230705 68 198 0.9 2.6 0.00 0.00 0.00 84 1017.7
20260905230200 69 180 0.9 2.6 0.00 0.00 0.00 84 1017.6
20260905225700 69 161 0.9 2.6 0.00 0.00 0.00 83 1017.5
20260905225201 69 161 0.9 2.6 0.00 0.00 0.00 83 1017.6
20260905224700 69 142 0.9 2.6 0.00 0.00 0.00 82 1017.7
20260905224201 69 159 0.9 2.6 0.00 0.00 0.00 81 1017.9
20260905223700 70 118 0.9 2.6 0.00 0.00 0.00 81 1017.7
20260905223203 70 189 0.9 2.6 0.00 0.00 0.00 81 1017.7
20260905222700 70 333 0.9 2.6 0.00 0.00 0.00 81 1017.6
20260905222202 70 333 0.9 2.6 0.00 0.00 0.00 80 1017.6
20260905221700 71 192 0.9 4.3 0.00 0.00 0.00 80 1017.6
20260905221200 71 37 0.9 4.3 0.00 0.00 0.00 80 1017.6
20260905220659 71 269 0.9 2.6 0.00 0.00 0.00 79 1017.6
20260905220201 71 189 0.9 2.6 0.00 0.00 0.00 79 1017.6
20260905215654 71 121 0.9 2.6 0.00 0.00 0.00 80 1017.6
20260905215156 72 103 0.9 2.6 0.00 0.00 0.00 78 1017.5
20260905214655 72 40 0.9 6.1 0.00 0.00 0.00 77 1017.5
20260905214420 73 67 1.7 6.1 0.00 0.00 0.00 76 1017.4
20260905213654 73 300 0.9 3.5 0.00 0.00 0.00 76 1017.8
20260905213155 73 80 0.9 2.6 0.00 0.00 0.00 78 1017.9
20260905212656 73 105 1.7 3.5 0.00 0.00 0.00 78 1017.8
20260905212418 73 155 1.7 3.5 0.00 0.00 0.00 77 1017.6
20260905211921 73 184 1.7 2.6 0.00 0.00 0.00 77 1017.6
20260905211150 73 166 1.7 5.2 0.00 0.00 0.00 76 1017.7
20260905210653 73 163 1.7 5.2 0.00 0.00 0.00 75 1017.8
20260905210150 73 134 1.7 4.3 0.00 0.00 0.00 77 1017.8
20260905205650 74 92 0.9 3.5 0.00 0.00 0.00 78 1017.8
20260905205151 73 215 1.7 3.5 0.00 0.00 0.00 76 1017.9
20260905204650 74 43 1.7 4.3 0.00 0.00 0.00 78 1017.8
20260905204152 73 85 0.9 4.3 0.00 0.00 0.00 77 1017.8
20260905203651 73 87 1.7 5.2 0.00 0.00 0.00 77 1017.8
20260905203150 73 160 1.7 7.8 0.00 0.00 0.00 79 1017.7
20260905202652 73 61 2.6 7.8 0.00 0.00 0.00 80 1017.7
20260905202143 73 99 1.7 6.1 0.00 0.00 0.00 79 1017.6
20260905201636 73 183 1.7 7.0 0.00 0.00 0.00 79 1017.6
20260905201137 73 154 1.7 7.0 0.00 0.00 0.00 80 1017.6
20260905200635 73 82 1.7 5.2 0.00 0.00 0.00 81 1017.7
20260905200135 72 134 2.6 5.2 0.00 0.00 0.00 80 1017.7
20260905195634 72 157 2.6 5.2 0.00 0.00 0.00 80 1017.7
20260905195134 73 127 1.7 5.2 0.00 0.00 0.00 79 1017.7
20260905194634 73 134 1.7 3.5 0.00 0.00 0.00 79 1017.6
20260905194137 74 40 0.9 3.5 0.00 0.00 0.00 78 1017.8
20260905193634 74 142 0.9 3.5 0.00 0.00 0.00 77 1017.7
20260905193355 74 75 1.7 4.3 0.00 0.00 0.00 80 1017.8
20260905193118 74 116 1.7 4.3 0.00 0.00 0.00 79 1017.9
20260905192128 74 20 1.7 5.2 0.00 0.00 0.00 81 1018.0
20260905191847 73 113 1.7 5.2 0.00 0.00 0.00 80 1018.0
20260905191128 72 102 1.7 3.5 0.00 0.00 0.00 80 1018.1
20260905190626 73 22 1.7 3.5 0.00 0.00 0.00 79 1018.1
20260905190127 74 38 1.7 4.3 0.00 0.00 0.00 78 1018.0
20260905185626 74 119 1.7 4.3 0.00 0.00 0.00 78 1018.2
20260905185126 74 113 1.7 3.5 0.00 0.00 0.00 79 1018.1
20260905184619 74 56 1.7 4.3 0.00 0.00 0.00 79 1018.2
20260905184114 73 113 1.7 5.2 0.00 0.00 0.00 79 1018.3
20260905183827 73 140 1.7 5.2 0.00 0.00 0.00 78 1018.3
20260905183102 74 121 1.7 6.1 0.00 0.00 0.00 81 1018.3
20260905182556 73 59 1.7 6.1 0.00 0.01 0.00 80 1018.3
20260905182051 73 126 1.7 4.3 0.00 0.01 0.00 83 1018.4
20260905181545 73 112 1.7 5.2 0.00 0.01 0.00 84 1018.3
20260905181039 72 126 1.7 5.2 0.00 0.01 0.00 83 1018.3
20260905180534 72 128 2.6 5.2 0.00 0.01 0.00 82 1018.3
20260905180027 72 93 1.7 5.2 0.00 0.01 0.00 82 1018.3
20260905175521 73 39 0.9 5.2 0.00 0.01 0.00 80 1018.3
20260905175509 73 82 1.7 5.2 0.00 0.01 0.00 81 1018.4
20260905175002 73 49 1.7 5.2 0.00 0.01 0.00 82 1018.3